Palestine, IL

10:58 PM CST on February 24, 2017 (GMT -0600)
Robinson Municipal

Weather History for KRSV - October, 2011

Change the Weather History Date:

Sunday, October 9, 2011

  Actual Average (KLWV) Record (KLWV)
Temperature  
Mean Temperature 60 °F -  
Max Temperature 80 °F 69 °F 88 °F (2010)
Min Temperature 41 °F 45 °F 30 °F (2000)
Degree Days  
Heating Degree Days 4    
Growing Degree Days 10 (Base 50)    
Moisture  
Dew Point 45 °F    
Average Humidity 56    
Maximum Humidity 100    
Minimum Humidity 24    
Precipitation  
Precipitation 0.00 in - - ()
Sea Level Pressure  
Sea Level Pressure 30.28 in    
Wind  
Wind Speed 3 mph (ENE)    
Max Wind Speed 10 mph    
Max Gust Speed -    
Visibility 9 miles    
Events Fog    
Averages and records for this station are not official NWS values.
T = Trace of Precipitation, MM = Missing Value Source: NWS Daily Summary

Daily Weather History Graph

Daily Weather History Graph

Search for Another Location

Airport or City:

Trip Planner

Search our weather history database for the weather conditions in past years. The results will help you decide how hot, cold, wet, or windy it might be!

Date:

Astronomy

Oct. 09, 2011 Rise Set
Actual Time 6:53 AM CDT 6:21 PM CDT
Civil Twilight 6:27 AM CDT 6:47 PM CDT
Nautical Twilight 5:56 AM CDT 7:18 PM CDT
Astronomical Twilight 5:25 AM CDT 7:49 PM CDT
Moon 4:57 PM CDT (10/9) 4:39 AM CDT (10/9)
Length of Visible Light 12h 20m
Length of Day
11h 27m
Waxing Gibbous, 95% of the Moon is Illuminated
Oct 9
Waxing Gibbous
Oct 11
Full
Oct 19
Last Quarter
Oct 26
New
Nov 2
First Quarter

Hourly Weather History & Observations

Time (CDT) Temp. Dew Point Humidity Pressure Visibility Wind Dir Wind Speed Gust Speed Precip Events Conditions
12:15 AM 46.4 °F 44.6 °F 93% 30.33 in 10.0 mi Calm Calm - N/A   Clear
12:35 AM 46.4 °F 44.6 °F 93% 30.32 in 10.0 mi Calm Calm - N/A   Clear
12:55 AM 44.6 °F 44.6 °F 100% 30.33 in 10.0 mi Calm Calm - N/A   Clear
4:55 AM 42.8 °F 41.0 °F 93% 30.34 in 1.8 mi Calm Calm - N/A   Mist
5:15 AM 41.0 °F 41.0 °F 100% 30.34 in 0.2 mi Calm Calm - N/A Fog Fog
5:35 AM 41.0 °F 41.0 °F 100% 30.34 in 0.5 mi Calm Calm - N/A Fog Fog
5:55 AM 41.0 °F 41.0 °F 100% 30.34 in 0.2 mi Calm Calm - N/A Fog Fog
6:15 AM 41.0 °F 41.0 °F 100% 30.35 in 0.2 mi Calm Calm - N/A Fog Fog
6:35 AM 41.0 °F 41.0 °F 100% 30.35 in 0.2 mi Calm Calm - N/A Fog Fog
9:55 AM 62.6 °F 53.6 °F 72% 30.37 in 10.0 mi Calm Calm - N/A   Clear
10:15 AM 68.0 °F 55.4 °F 64% 30.37 in 10.0 mi Calm Calm - N/A   Clear
10:35 AM 69.8 °F 51.8 °F 53% 30.36 in 10.0 mi Calm Calm - N/A   Clear
10:55 AM 71.6 °F 50.0 °F 46% 30.36 in 10.0 mi Calm Calm - N/A   Clear
11:15 AM 75.2 °F 46.4 °F 36% 30.35 in 10.0 mi ESE 3.5 mph - N/A   Clear
11:35 AM 77.0 °F 46.4 °F 34% 30.34 in 10.0 mi East 3.5 mph - N/A   Clear
11:55 AM 77.0 °F 44.6 °F 32% 30.34 in 10.0 mi East 4.6 mph - N/A   Clear
12:15 PM 75.2 °F 46.4 °F 36% 30.33 in 10.0 mi East 4.6 mph - N/A   Clear
12:35 PM 77.0 °F 46.4 °F 34% 30.32 in 10.0 mi East 4.6 mph - N/A   Clear
12:55 PM 78.8 °F 44.6 °F 30% 30.31 in 10.0 mi East 6.9 mph - N/A   Clear
1:15 PM 80.6 °F 44.6 °F 28% 30.30 in 10.0 mi East 6.9 mph - N/A   Clear
1:35 PM 80.6 °F 46.4 °F 30% 30.29 in 10.0 mi ENE 6.9 mph - N/A   Clear
1:55 PM 78.8 °F 42.8 °F 28% 30.28 in 10.0 mi East 5.8 mph - N/A   Clear
2:15 PM 80.6 °F 42.8 °F 26% 30.27 in 10.0 mi East 4.6 mph - N/A   Clear
2:35 PM 78.8 °F 41.0 °F 26% 30.26 in 10.0 mi NE 8.1 mph - N/A   Clear
2:55 PM 78.8 °F 41.0 °F 26% 30.26 in 10.0 mi NE 10.4 mph - N/A   Clear
3:15 PM 78.8 °F 39.2 °F 24% 30.24 in 10.0 mi ENE 9.2 mph - N/A   Clear
3:35 PM 78.8 °F 41.0 °F 26% 30.24 in 10.0 mi ENE 5.8 mph - N/A   Clear
3:55 PM 80.6 °F 42.8 °F 26% 30.23 in 10.0 mi ENE 9.2 mph - N/A   Clear
4:15 PM 78.8 °F 42.8 °F 28% 30.23 in 10.0 mi ENE 8.1 mph - N/A   Clear
4:35 PM 78.8 °F 42.8 °F 28% 30.23 in 10.0 mi NE 8.1 mph - N/A   Clear
4:55 PM 77.0 °F 41.0 °F 28% 30.22 in 10.0 mi NE 8.1 mph - N/A   Clear
5:15 PM 77.0 °F 41.0 °F 28% 30.22 in 10.0 mi NE 4.6 mph - N/A   Clear
5:35 PM 73.4 °F 42.8 °F 33% 30.22 in 10.0 mi NE 5.8 mph - N/A   Clear
5:55 PM 71.6 °F 44.6 °F 38% 30.22 in 10.0 mi ENE 6.9 mph - N/A   Clear
6:15 PM 71.6 °F 44.6 °F 38% 30.22 in 10.0 mi ENE 5.8 mph - N/A   Clear
6:55 PM 66.2 °F 44.6 °F 46% 30.22 in 10.0 mi East 6.9 mph - N/A   Clear
7:15 PM 64.4 °F 46.4 °F 52% 30.22 in 10.0 mi East 5.8 mph - N/A   Clear
7:35 PM 64.4 °F 46.4 °F 52% 30.22 in 10.0 mi East 3.5 mph - N/A   Clear
7:55 PM 62.6 °F 46.4 °F 55% 30.22 in 10.0 mi Calm Calm - N/A   Clear
8:15 PM 57.2 °F 46.4 °F 67% 30.22 in 10.0 mi Calm Calm - N/A   Clear
8:35 PM 60.8 °F 46.4 °F 59% 30.22 in 10.0 mi ENE 3.5 mph - N/A   Clear
9:15 PM 57.2 °F 48.2 °F 72% 30.22 in 10.0 mi ENE 3.5 mph - N/A   Clear
9:35 PM 53.6 °F 48.2 °F 82% 30.22 in 10.0 mi Calm Calm - N/A   Clear
10:15 PM 57.2 °F 50.0 °F 77% 30.23 in 10.0 mi Calm Calm - N/A   Clear
10:35 PM 59.0 °F 50.0 °F 72% 30.23 in 10.0 mi ESE 5.8 mph - N/A   Clear
10:55 PM 55.4 °F 50.0 °F 82% 30.23 in 10.0 mi ESE 3.5 mph - N/A   Clear
11:15 PM 55.4 °F 50.0 °F 82% 30.23 in 10.0 mi Calm Calm - N/A   Clear
11:35 PM 55.4 °F 50.0 °F 82% 30.22 in 10.0 mi Calm Calm - N/A   Clear
11:55 PM 55.4 °F 50.0 °F 82% 30.22 in 10.0 mi ENE 3.5 mph - N/A   Clear